"read_dt","SO2 (ppb)","flags","PMT voltage (V)","lamp voltage (V)","lamp intensity (Hz)","internal temp (C)","react chamber temp (C)","sample flow (l/min)","pres (mmHg)","SO2 bkg (ppb)","SO2 coefficient"
2015-05-25 00:00:00,1744E-3,5C000000,-0724,0831,12165,025.5,045.4,0.480,739.0,01.18,0.508
2015-05-25 00:01:00,1627E-3,5C000000,-0724,0832,12223,025.5,045.4,0.480,739.0,01.18,0.508
2015-05-25 00:02:00,1874E-3,5C000000,-0724,0831,12264,025.5,045.4,0.480,739.0,01.18,0.508
2015-05-25 00:03:00,1670E-3,5C000000,-0724,0832,12281,025.5,045.4,0.480,739.0,01.18,0.508
2015-05-25 00:04:00,1746E-3,5C000000,-0724,0831,12179,025.5,045.4,0.480,739.0,01.18,0.508
2015-05-25 00:05:00,1707E-3,5C000000,-0724,0831,12144,025.6,045.4,0.480,739.0,01.18,0.508
2015-05-25 00:06:00,1695E-3,5C000000,-0724,0831,12206,025.6,045.4,0.480,739.0,01.18,0.508
2015-05-25 00:07:00,1697E-3,5C000000,-0724,0832,12181,025.6,045.4,0.480,739.0,01.18,0.508
2015-05-25 00:08:00,1820E-3,5C000000,-0724,0831,12216,025.6,045.4,0.480,739.0,01.18,0.508
2015-05-25 00:09:00,1773E-3,5C000000,-0724,0831,12194,025.6,045.4,0.480,739.0,01.18,0.508
2015-05-25 00:10:00,1747E-3,5C000000,-0724,0831,12269,025.6,045.4,0.480,739.0,01.18,0.508
2015-05-25 00:11:00,1699E-3,5C000000,-0724,0832,12182,025.6,045.4,0.480,739.0,01.18,0.508
2015-05-25 00:12:00,1758E-3,5C000000,-0724,0831,12101,025.6,045.4,0.480,739.0,01.18,0.508
2015-05-25 00:13:00,1648E-3,5C000000,-0724,0831,12151,025.6,045.4,0.480,739.0,01.18,0.508
2015-05-25 00:14:00,1827E-3,5C000000,-0724,0832,12140,025.6,045.3,0.480,739.0,01.18,0.508
2015-05-25 00:15:00,1748E-3,5C000000,-0724,0831,12302,025.6,045.4,0.480,739.0,01.18,0.508
2015-05-25 00:16:00,1763E-3,5C000000,-0724,0831,12150,025.6,045.4,0.480,739.0,01.18,0.508
2015-05-25 00:17:00,1617E-3,5C000000,-0724,0832,12219,025.6,045.4,0.480,739.0,01.18,0.508
2015-05-25 00:18:00,1673E-3,5C000000,-0724,0831,12242,025.6,045.4,0.480,739.0,01.18,0.508
2015-05-25 00:19:00,1837E-3,5C000000,-0724,0831,12190,025.6,045.4,0.480,738.9,01.18,0.508
2015-05-25 00:20:00,1722E-3,5C000000,-0724,0831,12153,025.6,045.4,0.480,738.9,01.18,0.508
2015-05-25 00:21:00,1733E-3,5C000000,-0724,0831,12217,025.6,045.4,0.480,738.9,01.18,0.508
2015-05-25 00:22:00,1782E-3,5C000000,-0724,0831,12259,025.6,045.4,0.480,738.9,01.18,0.508
2015-05-25 00:23:00,1705E-3,5C000000,-0724,0831,12210,025.6,045.4,0.480,738.9,01.18,0.508
2015-05-25 00:24:00,1682E-3,5C000000,-0724,0831,12138,025.6,045.4,0.480,738.9,01.18,0.508
2015-05-25 00:25:00,1776E-3,5C000000,-0724,0831,11896,025.6,045.4,0.480,738.9,01.18,0.508
2015-05-25 00:26:00,1701E-3,5C000000,-0724,0832,12090,025.6,045.4,0.480,738.9,01.18,0.508
2015-05-25 00:27:00,1772E-3,5C000000,-0724,0831,12155,025.6,045.4,0.480,738.9,01.18,0.508
2015-05-25 00:28:00,1679E-3,5C000000,-0724,0831,12303,025.6,045.4,0.480,738.9,01.18,0.508
2015-05-25 00:29:00,1937E-3,5C000000,-0724,0831,12049,025.6,045.4,0.480,738.9,01.18,0.508
2015-05-25 00:30:00,1709E-3,5C000000,-0724,0830,12211,025.6,045.4,0.480,738.9,01.18,0.508
2015-05-25 00:31:00,1703E-3,5C000000,-0724,0831,12244,025.6,045.4,0.480,738.9,01.18,0.508
2015-05-25 00:32:00,1641E-3,5C000000,-0724,0831,12090,025.6,045.4,0.480,738.9,01.18,0.508
2015-05-25 00:33:00,1673E-3,5C000000,-0724,0831,12218,025.6,045.4,0.480,738.9,01.18,0.508
2015-05-25 00:34:00,1681E-3,5C000000,-0724,0831,12313,025.6,045.4,0.480,738.9,01.18,0.508
2015-05-25 00:35:00,1732E-3,5C000000,-0724,0831,12221,025.6,045.4,0.480,738.8,01.18,0.508
2015-05-25 00:36:00,1785E-3,5C000000,-0724,0832,12235,025.6,045.4,0.480,738.8,01.18,0.508
2015-05-25 00:37:00,1840E-3,5C000000,-0724,0831,12155,025.6,045.4,0.480,738.8,01.18,0.508
2015-05-25 00:38:00,1725E-3,5C000000,-0724,0831,12185,025.6,045.4,0.480,738.8,01.18,0.508
2015-05-25 00:39:00,1902E-3,5C000000,-0724,0831,12205,025.6,045.4,0.480,738.8,01.18,0.508
2015-05-25 00:40:00,1690E-3,5C000000,-0724,0831,12194,025.6,045.4,0.480,738.8,01.18,0.508
2015-05-25 00:41:00,1807E-3,5C000000,-0724,0831,12192,025.6,045.4,0.480,738.8,01.18,0.508
2015-05-25 00:42:00,1856E-3,5C000000,-0724,0832,12199,025.6,045.4,0.480,738.8,01.18,0.508
2015-05-25 00:43:00,1779E-3,5C000000,-0724,0831,12110,025.6,045.4,0.480,738.8,01.18,0.508
2015-05-25 00:44:00,1759E-3,5C000000,-0724,0831,12202,025.6,045.4,0.480,738.8,01.18,0.508
2015-05-25 00:45:00,1877E-3,5C000000,-0724,0831,12107,025.6,045.4,0.480,738.8,01.18,0.508
2015-05-25 00:46:00,1746E-3,5C000000,-0724,0831,12306,025.6,045.4,0.480,738.8,01.18,0.508
2015-05-25 00:47:00,1683E-3,5C000000,-0724,0831,12214,025.6,045.4,0.480,738.8,01.18,0.508
2015-05-25 00:48:00,1811E-3,5C000000,-0724,0830,12088,025.6,045.4,0.480,738.8,01.18,0.508
2015-05-25 00:49:00,1778E-3,5C000000,-0724,0831,12084,025.6,045.4,0.480,738.8,01.18,0.508
2015-05-25 00:50:00,1823E-3,5C000000,-0724,0831,12284,025.6,045.4,0.480,738.8,01.18,0.508
2015-05-25 00:51:00,1678E-3,5C000000,-0724,0831,12218,025.7,045.4,0.480,738.8,01.18,0.508
2015-05-25 00:52:00,1793E-3,5C000000,-0724,0832,12165,025.6,045.4,0.480,738.8,01.18,0.508
2015-05-25 00:53:00,1608E-3,5C000000,-0724,0831,12129,025.6,045.4,0.480,738.8,01.18,0.508
2015-05-25 00:54:00,1699E-3,5C000000,-0724,0831,11998,025.6,045.4,0.480,738.8,01.18,0.508
2015-05-25 00:55:00,1731E-3,5C000000,-0724,0831,12164,025.6,045.4,0.480,738.8,01.18,0.508
2015-05-25 00:56:00,1693E-3,5C000000,-0724,0830,12172,025.6,045.4,0.480,738.8,01.18,0.508
2015-05-25 00:57:00,1792E-3,5C000000,-0724,0830,12212,025.6,045.4,0.480,738.8,01.18,0.508
2015-05-25 00:58:00,1720E-3,5C000000,-0724,0831,12214,025.7,045.4,0.480,738.8,01.18,0.508
2015-05-25 00:59:00,1676E-3,5C000000,-0724,0831,12213,025.6,045.4,0.480,738.8,01.18,0.508
2015-05-25 01:00:00,1854E-3,5C000000,-0724,0830,12153,025.7,045.4,0.480,738.8,01.18,0.508
2015-05-25 01:01:00,1602E-3,5C000000,-0724,0830,12285,025.7,045.4,0.480,738.8,01.18,0.508
2015-05-25 01:02:00,1778E-3,5C000000,-0724,0831,12208,025.6,045.4,0.480,738.8,01.18,0.508
2015-05-25 01:03:00,1722E-3,5C000000,-0724,0831,12124,025.7,045.4,0.480,738.8,01.18,0.508
2015-05-25 01:04:00,1695E-3,5C000000,-0724,0832,12199,025.6,045.4,0.480,738.8,01.18,0.508
2015-05-25 01:05:00,1820E-3,5C000000,-0724,0831,12105,025.7,045.4,0.480,738.8,01.18,0.508
2015-05-25 01:06:00,1717E-3,5C000000,-0724,0831,12112,025.7,045.4,0.480,738.8,01.18,0.508
2015-05-25 01:07:00,1765E-3,5C000000,-0724,0831,12250,025.7,045.4,0.480,738.8,01.18,0.508
2015-05-25 01:08:00,1679E-3,5C000000,-0724,0831,12062,025.7,045.4,0.480,738.8,01.18,0.508
2015-05-25 01:09:00,1639E-3,5C000000,-0724,0831,12133,025.7,045.4,0.480,738.8,01.18,0.508
2015-05-25 01:10:00,1716E-3,5C000000,-0724,0831,12208,025.7,045.4,0.480,738.8,01.18,0.508
2015-05-25 01:11:00,1833E-3,5C000000,-0724,0831,12084,025.7,045.4,0.480,738.8,01.18,0.508
2015-05-25 01:12:00,1786E-3,5C000000,-0724,0831,12197,025.7,045.4,0.480,738.8,01.18,0.508
2015-05-25 01:13:00,1891E-3,5C000000,-0724,0831,12256,025.7,045.4,0.480,738.8,01.18,0.508
2015-05-25 01:14:00,1776E-3,5C000000,-0724,0831,12314,025.7,045.4,0.480,738.8,01.18,0.508
2015-05-25 01:15:00,1828E-3,5C000000,-0724,0831,12217,025.7,045.4,0.480,738.8,01.18,0.508
2015-05-25 01:16:00,1723E-3,5C000000,-0724,0830,12188,025.7,045.4,0.480,738.8,01.18,0.508
2015-05-25 01:17:00,1728E-3,5C000000,-0724,0830,12189,025.7,045.4,0.480,738.8,01.18,0.508
2015-05-25 01:18:00,1679E-3,5C000000,-0724,0832,12204,025.7,045.4,0.480,738.8,01.18,0.508
2015-05-25 01:19:00,1742E-3,5C000000,-0724,0831,12181,025.7,045.4,0.480,738.8,01.18,0.508
2015-05-25 01:20:00,1854E-3,5C000000,-0724,0831,12163,025.7,045.4,0.480,738.8,01.18,0.508
2015-05-25 01:21:00,1787E-3,5C000000,-0724,0831,12226,025.7,045.4,0.480,738.8,01.18,0.508
2015-05-25 01:22:00,1715E-3,5C000000,-0724,0830,12205,025.7,045.4,0.480,738.8,01.18,0.508
2015-05-25 01:23:00,1768E-3,5C000000,-0724,0831,12143,025.7,045.4,0.480,738.8,01.18,0.508
2015-05-25 01:24:00,1721E-3,5C000000,-0724,0831,12215,025.8,045.4,0.480,738.8,01.18,0.508
2015-05-25 01:25:00,1671E-3,5C000000,-0724,0831,12180,025.8,045.4,0.480,738.8,01.18,0.508
2015-05-25 01:26:00,1669E-3,5C000000,-0724,0832,12243,025.8,045.4,0.480,738.8,01.18,0.508
2015-05-25 01:27:00,1755E-3,5C000000,-0724,0831,12219,025.8,045.4,0.479,738.8,01.18,0.508
2015-05-25 01:28:00,1686E-3,5C000000,-0724,0831,12191,025.7,045.4,0.480,738.8,01.18,0.508
2015-05-25 01:29:00,1668E-3,5C000000,-0724,0830,12184,025.8,045.4,0.480,738.8,01.18,0.508
2015-05-25 01:30:00,1838E-3,5C000000,-0724,0832,12226,025.8,045.4,0.480,738.8,01.18,0.508
2015-05-25 01:31:00,1679E-3,5C000000,-0724,0830,12198,025.8,045.4,0.480,738.8,01.18,0.508
2015-05-25 01:32:00,1839E-3,5C000000,-0724,0830,12158,025.8,045.4,0.480,738.8,01.18,0.508
2015-05-25 01:33:00,1842E-3,5C000000,-0724,0832,12088,025.8,045.4,0.480,738.8,01.18,0.508
2015-05-25 01:34:00,1684E-3,5C000000,-0724,0831,12209,025.8,045.4,0.479,738.8,01.18,0.508
2015-05-25 01:35:00,1676E-3,5C000000,-0724,0831,12216,025.8,045.4,0.479,738.8,01.18,0.508
2015-05-25 01:36:00,1790E-3,5C000000,-0724,0831,12226,025.8,045.4,0.480,738.8,01.18,0.508
2015-05-25 01:37:00,1686E-3,5C000000,-0724,0831,12228,025.8,045.4,0.480,738.8,01.18,0.508
2015-05-25 01:38:00,1754E-3,5C000000,-0724,0831,12145,025.8,045.4,0.480,738.8,01.18,0.508
2015-05-25 01:39:00,1748E-3,5C000000,-0724,0831,12309,025.8,045.4,0.480,738.8,01.18,0.508
2015-05-25 01:40:00,1819E-3,5C000000,-0724,0831,12210,025.8,045.4,0.480,738.8,01.18,0.508
2015-05-25 01:41:00,1699E-3,5C000000,-0724,0832,12136,025.8,045.4,0.480,738.8,01.18,0.508
2015-05-25 01:42:00,1723E-3,5C000000,-0724,0830,12247,025.8,045.4,0.479,738.7,01.18,0.508
2015-05-25 01:43:00,1770E-3,5C000000,-0724,0831,12204,025.8,045.4,0.480,738.8,01.18,0.508
2015-05-25 01:44:00,1725E-3,5C000000,-0724,0830,12001,025.8,045.4,0.480,738.8,01.18,0.508
2015-05-25 01:45:00,1741E-3,5C000000,-0724,0831,12139,025.8,045.4,0.480,738.8,01.18,0.508
2015-05-25 01:46:00,1686E-3,5C000000,-0724,0832,12277,025.8,045.4,0.480,738.7,01.18,0.508
2015-05-25 01:47:00,1622E-3,5C000000,-0724,0831,12192,025.8,045.4,0.480,738.7,01.18,0.508
2015-05-25 01:48:00,1771E-3,5C000000,-0724,0831,12205,025.8,045.4,0.480,738.7,01.18,0.508
2015-05-25 01:49:00,1814E-3,5C000000,-0724,0831,12237,025.9,045.4,0.479,738.7,01.18,0.508
2015-05-25 01:50:00,1856E-3,5C000000,-0724,0830,12183,025.9,045.4,0.479,738.7,01.18,0.508
2015-05-25 01:51:00,1650E-3,5C000000,-0724,0831,12295,025.9,045.4,0.480,738.7,01.18,0.508
2015-05-25 01:52:00,1780E-3,5C000000,-0724,0831,12292,025.9,045.4,0.480,738.7,01.18,0.508
2015-05-25 01:53:00,1733E-3,5C000000,-0724,0831,12274,025.9,045.4,0.480,738.7,01.18,0.508
2015-05-25 01:54:00,1667E-3,5C000000,-0724,0831,11970,025.9,045.4,0.480,738.7,01.18,0.508
2015-05-25 01:55:00,1641E-3,5C000000,-0724,0831,12219,025.9,045.4,0.480,738.7,01.18,0.508
2015-05-25 01:56:00,1698E-3,5C000000,-0724,0832,12261,025.9,045.4,0.479,738.7,01.18,0.508
2015-05-25 01:57:00,1695E-3,5C000000,-0724,0830,12124,025.9,045.4,0.479,738.7,01.18,0.508
2015-05-25 01:58:00,1742E-3,5C000000,-0724,0831,12155,025.9,045.4,0.479,738.7,01.18,0.508
2015-05-25 01:59:00,1710E-3,5C000000,-0724,0830,11970,025.9,045.4,0.479,738.7,01.18,0.508
2015-05-25 02:00:00,1810E-3,5C000000,-0724,0831,12212,025.9,045.4,0.480,738.7,01.18,0.508
2015-05-25 02:01:00,1760E-3,5C000000,-0724,0831,12295,025.9,045.4,0.480,738.7,01.18,0.508
2015-05-25 02:02:00,1723E-3,5C000000,-0724,0830,12203,025.9,045.4,0.480,738.7,01.18,0.508
2015-05-25 02:03:00,1665E-3,5C000000,-0724,0831,12198,025.9,045.4,0.480,738.7,01.18,0.508
2015-05-25 02:04:00,1734E-3,5C000000,-0724,0832,12123,025.9,045.4,0.480,738.7,01.18,0.508
2015-05-25 02:05:00,1521E-3,5C000000,-0724,0832,12194,025.9,045.4,0.479,738.7,01.18,0.508
2015-05-25 02:06:00,1825E-3,5C000000,-0724,0831,12141,025.9,045.4,0.479,738.7,01.18,0.508
2015-05-25 02:07:00,1768E-3,5C000000,-0724,0831,12084,025.9,045.4,0.479,738.7,01.18,0.508
2015-05-25 02:08:00,1768E-3,5C000000,-0724,0831,12310,025.9,045.4,0.479,738.7,01.18,0.508
2015-05-25 02:09:00,1716E-3,5C000000,-0724,0832,12236,025.9,045.4,0.479,738.7,01.18,0.508
2015-05-25 02:10:00,1772E-3,5C000000,-0724,0832,12116,025.9,045.4,0.480,738.7,01.18,0.508
2015-05-25 02:11:00,1727E-3,5C000000,-0724,0831,12225,026.0,045.4,0.480,738.7,01.18,0.508
2015-05-25 02:12:00,1718E-3,5C000000,-0724,0831,12132,026.0,045.4,0.480,738.7,01.18,0.508
2015-05-25 02:13:00,1672E-3,5C000000,-0724,0832,12288,026.0,045.4,0.480,738.7,01.18,0.508
2015-05-25 02:14:00,1748E-3,5C000000,-0724,0831,12180,026.0,045.4,0.480,738.7,01.18,0.508
2015-05-25 02:15:00,1694E-3,5C000000,-0724,0831,12247,026.0,045.4,0.479,738.7,01.18,0.508
2015-05-25 02:16:00,1709E-3,5C000000,-0724,0832,12179,026.0,045.4,0.479,738.6,01.18,0.508
2015-05-25 02:17:00,1633E-3,5C000000,-0724,0832,12175,026.0,045.4,0.479,738.6,01.18,0.508
2015-05-25 02:18:00,1722E-3,5C000000,-0724,0831,12204,026.0,045.4,0.479,738.6,01.18,0.508
2015-05-25 02:19:00,1733E-3,5C000000,-0724,0832,12166,026.0,045.4,0.479,738.6,01.18,0.508
2015-05-25 02:20:00,1769E-3,5C000000,-0724,0832,12157,026.0,045.4,0.480,738.6,01.18,0.508
2015-05-25 02:21:00,1776E-3,5C000000,-0724,0831,12148,026.0,045.4,0.480,738.6,01.18,0.508
2015-05-25 02:22:00,1589E-3,5C000000,-0724,0831,12125,026.0,045.4,0.480,738.6,01.18,0.508
2015-05-25 02:23:00,1757E-3,5C000000,-0724,0832,12225,026.0,045.4,0.480,738.6,01.18,0.508
2015-05-25 02:24:00,1819E-3,5C000000,-0724,0832,12195,026.0,045.4,0.479,738.6,01.18,0.508
2015-05-25 02:25:00,1744E-3,5C000000,-0724,0831,12206,026.0,045.4,0.479,738.6,01.18,0.508
2015-05-25 02:26:00,1718E-3,5C000000,-0724,0832,12314,026.0,045.4,0.479,738.6,01.18,0.508
2015-05-25 02:27:00,1813E-3,5C000000,-0724,0831,12145,026.1,045.4,0.479,738.6,01.18,0.508
2015-05-25 02:28:00,1837E-3,5C000000,-0724,0830,12115,026.0,045.4,0.479,738.6,01.18,0.508
2015-05-25 02:29:00,1879E-3,5C000000,-0724,0831,12192,026.0,045.4,0.479,738.6,01.18,0.508
2015-05-25 02:30:00,1661E-3,5C000000,-0724,0831,11945,026.0,045.4,0.480,738.6,01.18,0.508
2015-05-25 02:31:00,1810E-3,5C000000,-0724,0832,12235,026.1,045.4,0.480,738.6,01.18,0.508
2015-05-25 02:32:00,1776E-3,5C000000,-0724,0831,12291,026.1,045.4,0.480,738.6,01.18,0.508
2015-05-25 02:33:00,1694E-3,5C000000,-0724,0831,12341,026.0,045.4,0.479,738.6,01.18,0.508
2015-05-25 02:34:00,1709E-3,5C000000,-0724,0831,12303,026.1,045.4,0.479,738.6,01.18,0.508
2015-05-25 02:35:00,1720E-3,5C000000,-0724,0830,12272,026.1,045.4,0.479,738.6,01.18,0.508
2015-05-25 02:36:00,1819E-3,5C000000,-0724,0830,12234,026.1,045.4,0.479,738.6,01.18,0.508
2015-05-25 02:37:00,1628E-3,5C000000,-0724,0830,12078,026.1,045.4,0.479,738.6,01.18,0.508
2015-05-25 02:38:00,1756E-3,5C000000,-0724,0831,12202,026.1,045.4,0.479,738.6,01.18,0.508
2015-05-25 02:39:00,1811E-3,5C000000,-0724,0831,12206,026.1,045.4,0.480,738.6,01.18,0.508
2015-05-25 02:40:00,1825E-3,5C000000,-0724,0831,12128,026.1,045.4,0.480,738.6,01.18,0.508
2015-05-25 02:41:00,1693E-3,5C000000,-0724,0831,12298,026.1,045.4,0.479,738.6,01.18,0.508
2015-05-25 02:42:00,1660E-3,5C000000,-0724,0832,12229,026.1,045.4,0.479,738.6,01.18,0.508
2015-05-25 02:43:00,1796E-3,5C000000,-0724,0831,12283,026.1,045.4,0.479,738.6,01.18,0.508
2015-05-25 02:44:00,1807E-3,5C000000,-0724,0831,12203,026.1,045.4,0.479,738.6,01.18,0.508
2015-05-25 02:45:00,1663E-3,5C000000,-0724,0831,12350,026.1,045.4,0.479,738.6,01.18,0.508
2015-05-25 02:46:00,1716E-3,5C000000,-0724,0831,12103,026.1,045.4,0.479,738.6,01.18,0.508
2015-05-25 02:47:00,1821E-3,5C000000,-0724,0831,12143,026.1,045.4,0.480,738.6,01.18,0.508
2015-05-25 02:48:00,1613E-3,5C000000,-0724,0831,12243,026.1,045.4,0.480,738.6,01.18,0.508
2015-05-25 02:49:00,1705E-3,5C000000,-0724,0831,12196,026.1,045.4,0.479,738.6,01.18,0.508
2015-05-25 02:50:00,1820E-3,5C000000,-0724,0831,12257,026.2,045.4,0.479,738.5,01.18,0.508
2015-05-25 02:51:00,1805E-3,5C000000,-0724,0831,11990,026.2,045.4,0.479,738.6,01.18,0.508
2015-05-25 02:52:00,1741E-3,5C000000,-0724,0831,12217,026.2,045.4,0.479,738.5,01.18,0.508
2015-05-25 02:53:00,1817E-3,5C000000,-0724,0831,12260,026.2,045.4,0.479,738.5,01.18,0.508
2015-05-25 02:54:00,1795E-3,5C000000,-0724,0831,12249,026.2,045.4,0.479,738.5,01.18,0.508
2015-05-25 02:55:00,1835E-3,5C000000,-0724,0830,12183,026.2,045.4,0.479,738.6,01.18,0.508
2015-05-25 02:56:00,1734E-3,5C000000,-0724,0831,12198,026.2,045.4,0.479,738.6,01.18,0.508
2015-05-25 02:57:00,1697E-3,5C000000,-0724,0831,12200,026.2,045.4,0.479,738.5,01.18,0.508
2015-05-25 02:58:00,1653E-3,5C000000,-0724,0831,12218,026.2,045.4,0.479,738.5,01.18,0.508
2015-05-25 02:59:00,1734E-3,5C000000,-0724,0831,12265,026.2,045.4,0.479,738.5,01.18,0.508
2015-05-25 03:00:00,1820E-3,5C000000,-0724,0831,12282,026.2,045.4,0.479,738.5,01.18,0.508
2015-05-25 03:01:00,1716E-3,5C000000,-0724,0831,12238,026.2,045.4,0.479,738.5,01.18,0.508
2015-05-25 03:02:00,1665E-3,5C000000,-0724,0830,12202,026.2,045.4,0.479,738.5,01.18,0.508
2015-05-25 03:03:00,1682E-3,5C000000,-0724,0830,12155,026.2,045.4,0.479,738.6,01.18,0.508
2015-05-25 03:04:00,1610E-3,5C000000,-0724,0830,12238,026.2,045.4,0.479,738.6,01.18,0.508
2015-05-25 03:05:00,1768E-3,5C000000,-0724,0830,12238,026.2,045.4,0.479,738.6,01.18,0.508
2015-05-25 03:06:00,1797E-3,5C000000,-0724,0831,12159,026.2,045.4,0.479,738.6,01.18,0.508
2015-05-25 03:07:00,1723E-3,5C000000,-0724,0830,12268,026.2,045.4,0.479,738.6,01.18,0.508
2015-05-25 03:08:00,1758E-3,5C000000,-0724,0831,12254,026.2,045.4,0.479,738.6,01.18,0.508
2015-05-25 03:09:00,1846E-3,5C000000,-0724,0831,12308,026.3,045.4,0.479,738.6,01.18,0.508
2015-05-25 03:10:00,1658E-3,5C000000,-0724,0831,12208,026.3,045.4,0.479,738.6,01.18,0.508
2015-05-25 03:11:00,1696E-3,5C000000,-0724,0831,12126,026.3,045.4,0.479,738.6,01.18,0.508
2015-05-25 03:12:00,1698E-3,5C000000,-0724,0830,12289,026.3,045.4,0.479,738.6,01.18,0.508
2015-05-25 03:13:00,1657E-3,5C000000,-0724,0830,12147,026.3,045.4,0.479,738.6,01.18,0.508
2015-05-25 03:14:00,1842E-3,5C000000,-0724,0831,12283,026.3,045.4,0.479,738.6,01.18,0.508
2015-05-25 03:15:00,1739E-3,5C000000,-0724,0829,12259,026.3,045.4,0.479,738.6,01.18,0.508
2015-05-25 03:16:00,1651E-3,5C000000,-0724,0831,12234,026.3,045.4,0.479,738.6,01.18,0.508
2015-05-25 03:17:00,1693E-3,5C000000,-0724,0832,12063,026.3,045.4,0.479,738.6,01.18,0.508
2015-05-25 03:18:00,1837E-3,5C000000,-0724,0831,12211,026.3,045.4,0.479,738.6,01.18,0.508
2015-05-25 03:19:00,1863E-3,5C000000,-0724,0830,12148,026.3,045.4,0.479,738.6,01.18,0.508
2015-05-25 03:20:00,1767E-3,5C000000,-0724,0830,12307,026.3,045.4,0.479,738.6,01.18,0.508
2015-05-25 03:21:00,1686E-3,5C000000,-0724,0831,12234,026.3,045.4,0.479,738.6,01.18,0.508
2015-05-25 03:22:00,1641E-3,5C000000,-0724,0831,12061,026.3,045.4,0.479,738.6,01.18,0.508
2015-05-25 03:23:00,1808E-3,5C000000,-0724,0832,12123,026.3,045.4,0.479,738.6,01.18,0.508
2015-05-25 03:24:00,1784E-3,5C000000,-0724,0831,12054,026.3,045.4,0.479,738.6,01.18,0.508
2015-05-25 03:25:00,1780E-3,5C000000,-0724,0831,12103,026.3,045.4,0.479,738.6,01.18,0.508
2015-05-25 03:26:00,1881E-3,5C000000,-0724,0831,12050,026.3,045.4,0.479,738.6,01.18,0.508
2015-05-25 03:27:00,1744E-3,5C000000,-0724,0831,12215,026.3,045.4,0.479,738.6,01.18,0.508
2015-05-25 03:28:00,1691E-3,5C000000,-0724,0830,12426,026.4,045.4,0.479,738.6,01.18,0.508
2015-05-25 03:29:00,1664E-3,5C000000,-0724,0830,12033,026.4,045.4,0.479,738.6,01.18,0.508
2015-05-25 03:30:00,1710E-3,5C000000,-0724,0830,12233,026.3,045.4,0.479,738.6,01.18,0.508
2015-05-25 03:31:00,1736E-3,5C000000,-0724,0831,12130,026.4,045.4,0.479,738.6,01.18,0.508
2015-05-25 03:32:00,1764E-3,5C000000,-0724,0830,12156,026.4,045.4,0.479,738.6,01.18,0.508
2015-05-25 03:33:00,1701E-3,5C000000,-0724,0830,12232,026.4,045.4,0.479,738.6,01.18,0.508
2015-05-25 03:34:00,1760E-3,5C000000,-0724,0830,12166,026.3,045.4,0.479,738.6,01.18,0.508
2015-05-25 03:35:00,1920E-3,5C000000,-0724,0830,12101,026.4,045.4,0.479,738.6,01.18,0.508
2015-05-25 03:36:00,1793E-3,5C000000,-0724,0831,12259,026.4,045.4,0.479,738.6,01.18,0.508
2015-05-25 03:37:00,1741E-3,5C000000,-0724,0830,12029,026.4,045.4,0.479,738.6,01.18,0.508
2015-05-25 03:38:00,1695E-3,5C000000,-0724,0831,11999,026.4,045.4,0.479,738.6,01.18,0.508
2015-05-25 03:39:00,1710E-3,5C000000,-0724,0831,12117,026.4,045.4,0.479,738.6,01.18,0.508
2015-05-25 03:40:00,1752E-3,5C000000,-0724,0830,12186,026.4,045.4,0.479,738.6,01.18,0.508
2015-05-25 03:41:00,1728E-3,5C000000,-0724,0831,12195,026.4,045.4,0.479,738.6,01.18,0.508
2015-05-25 03:42:00,1703E-3,5C000000,-0724,0830,12312,026.4,045.4,0.479,738.6,01.18,0.508
2015-05-25 03:43:00,1724E-3,5C000000,-0724,0831,12282,026.4,045.4,0.479,738.6,01.18,0.508
2015-05-25 03:44:00,1692E-3,5C000000,-0724,0831,12232,026.4,045.4,0.479,738.6,01.18,0.508
2015-05-25 03:45:00,1801E-3,5C000000,-0724,0832,12154,026.4,045.4,0.479,738.6,01.18,0.508
2015-05-25 03:46:00,1821E-3,5C000000,-0724,0832,12429,026.4,045.4,0.479,738.6,01.18,0.508
2015-05-25 03:47:00,1592E-3,5C000000,-0724,0831,12202,026.4,045.4,0.479,738.6,01.18,0.508
2015-05-25 03:48:00,1698E-3,5C000000,-0724,0832,12136,026.5,045.4,0.479,738.6,01.18,0.508
2015-05-25 03:49:00,1893E-3,5C000000,-0724,0831,12156,026.4,045.4,0.479,738.6,01.18,0.508
2015-05-25 03:50:00,1800E-3,5C000000,-0724,0832,12311,026.5,045.4,0.479,738.6,01.18,0.508
2015-05-25 03:51:00,1822E-3,5C000000,-0724,0831,12251,026.5,045.4,0.479,738.6,01.18,0.508
2015-05-25 03:52:00,1685E-3,5C000000,-0724,0831,12163,026.5,045.4,0.479,738.6,01.18,0.508
2015-05-25 03:53:00,1760E-3,5C000000,-0724,0831,12086,026.5,045.4,0.479,738.5,01.18,0.508
2015-05-25 03:54:00,1688E-3,5C000000,-0724,0830,12237,026.5,045.4,0.479,738.6,01.18,0.508
2015-05-25 03:55:00,1800E-3,5C000000,-0724,0832,12189,026.5,045.4,0.478,738.5,01.18,0.508
2015-05-25 03:56:00,1800E-3,5C000000,-0724,0832,12275,026.5,045.4,0.478,738.5,01.18,0.508
2015-05-25 03:57:00,1679E-3,5C000000,-0724,0832,12217,026.5,045.4,0.478,738.6,01.18,0.508
2015-05-25 03:58:00,1717E-3,5C000000,-0724,0831,12111,026.5,045.4,0.479,738.5,01.18,0.508
2015-05-25 03:59:00,1678E-3,5C000000,-0724,0830,12142,026.5,045.4,0.479,738.5,01.18,0.508
2015-05-25 04:00:00,1766E-3,5C000000,-0724,0830,12078,026.5,045.4,0.479,738.6,01.18,0.508
2015-05-25 04:01:00,1640E-3,5C000000,-0724,0831,12094,026.5,045.4,0.479,738.6,01.18,0.508
2015-05-25 04:02:00,1891E-3,5C000000,-0724,0831,12238,026.5,045.4,0.479,738.5,01.18,0.508
2015-05-25 04:03:00,1738E-3,5C000000,-0724,0832,12251,026.5,045.4,0.479,738.6,01.18,0.508
2015-05-25 04:04:00,1870E-3,5C000000,-0724,0831,12173,026.5,045.4,0.479,738.6,01.18,0.508
2015-05-25 04:05:00,1843E-3,5C000000,-0724,0832,12309,026.5,045.4,0.479,738.6,01.18,0.508
2015-05-25 04:06:00,1754E-3,5C000000,-0724,0832,12106,026.5,045.4,0.478,738.6,01.18,0.508
2015-05-25 04:07:00,1851E-3,5C000000,-0724,0832,12185,026.5,045.4,0.478,738.6,01.18,0.508
2015-05-25 04:08:00,1913E-3,5C000000,-0724,0831,12144,026.5,045.4,0.479,738.6,01.18,0.508
2015-05-25 04:09:00,1768E-3,5C000000,-0724,0832,12260,026.5,045.4,0.479,738.6,01.18,0.508
2015-05-25 04:10:00,1732E-3,5C000000,-0724,0831,12208,026.5,045.4,0.479,738.6,01.18,0.508
2015-05-25 04:11:00,1656E-3,5C000000,-0724,0832,12104,026.5,045.4,0.479,738.6,01.18,0.508
2015-05-25 04:12:00,1813E-3,5C000000,-0724,0831,12142,026.6,045.4,0.479,738.6,01.18,0.508
2015-05-25 04:13:00,1713E-3,5C000000,-0724,0832,12239,026.5,045.4,0.479,738.6,01.18,0.508
2015-05-25 04:14:00,1639E-3,5C000000,-0724,0831,12182,026.6,045.4,0.479,738.6,01.18,0.508
2015-05-25 04:15:00,1583E-3,5C000000,-0724,0832,12101,026.6,045.4,0.479,738.6,01.18,0.508
2015-05-25 04:16:00,1661E-3,5C000000,-0724,0832,12267,026.6,045.4,0.479,738.6,01.18,0.508
2015-05-25 04:17:00,1721E-3,5C000000,-0724,0832,11935,026.6,045.4,0.478,738.6,01.18,0.508
2015-05-25 04:18:00,1736E-3,5C000000,-0724,0831,12194,026.6,045.4,0.478,738.6,01.18,0.508
2015-05-25 04:19:00,1727E-3,5C000000,-0724,0831,12212,026.6,045.4,0.478,738.6,01.18,0.508
2015-05-25 04:20:00,1710E-3,5C000000,-0724,0831,12123,026.6,045.4,0.478,738.6,01.18,0.508